Year,Month,Day,Hour,Minute,Value (Times are PST for windspeed in km/hr)
2020,11,15,00,00,0.00
2020,11,15,00,01,0.00
2020,11,15,00,02,0.00
2020,11,15,00,03,0.00
2020,11,15,00,04,0.00
2020,11,15,00,05,0.00
2020,11,15,00,06,0.00
2020,11,15,00,07,0.00
2020,11,15,00,08,0.00
2020,11,15,00,09,0.00
2020,11,15,00,10,0.00
2020,11,15,00,11,0.00
2020,11,15,11,30,4.60
2020,11,15,11,31,4.90
2020,11,15,11,32,3.20
2020,11,15,11,33,8.00
2020,11,15,11,34,11.70
2020,11,15,11,35,9.20
2020,11,15,11,36,2.50
2020,11,15,11,37,7.00
2020,11,15,11,38,9.00
2020,11,15,11,39,14.70
2020,11,15,11,40,11.10
2020,11,15,11,41,10.60
2020,11,15,11,42,9.90
2020,11,15,11,43,7.80
2020,11,15,11,44,7.50
2020,11,15,11,45,5.70
2020,11,15,11,46,7.50
2020,11,15,11,47,6.10
2020,11,15,11,48,5.60
2020,11,15,11,49,4.50
2020,11,15,11,50,4.10
2020,11,15,11,51,5.70
2020,11,15,11,52,3.00
2020,11,15,11,53,1.60
2020,11,15,11,54,5.60
2020,11,15,11,55,8.50
2020,11,15,11,56,9.30
2020,11,15,11,57,3.10
2020,11,15,11,58,5.50
2020,11,15,11,59,5.80
2020,11,15,12,00,3.70
2020,11,15,12,01,1.90
2020,11,15,12,02,0.00
2020,11,15,12,03,0.00
2020,11,15,12,04,0.00
2020,11,15,12,05,0.00
2020,11,15,12,06,0.00
2020,11,15,12,07,0.00
2020,11,15,12,08,0.00
2020,11,15,12,09,4.10
2020,11,15,12,10,4.90
2020,11,15,12,11,5.10
2020,11,15,12,12,2.20
2020,11,15,12,13,0.00
2020,11,15,12,14,0.00
2020,11,15,12,15,0.00
2020,11,15,12,16,0.00
2020,11,15,12,17,0.00
2020,11,15,12,18,0.00
2020,11,15,12,19,0.00
2020,11,15,12,20,0.00
2020,11,15,12,21,1.20
2020,11,15,12,22,3.20
2020,11,15,12,23,1.40
2020,11,15,12,24,6.40
2020,11,15,12,25,6.90
2020,11,15,12,26,0.00
2020,11,15,12,27,0.00
2020,11,15,12,28,0.00
2020,11,15,12,29,4.20
2020,11,15,12,30,5.90
2020,11,15,12,31,2.90
2020,11,15,12,32,0.00
2020,11,15,12,33,9.00
2020,11,15,12,34,0.70
2020,11,15,12,35,3.00
2020,11,15,12,36,3.80
2020,11,15,12,37,3.90
2020,11,15,12,38,8.50
2020,11,15,12,39,4.10
2020,11,15,12,40,7.60
2020,11,15,12,41,5.40
2020,11,15,12,42,10.30
2020,11,15,12,43,11.40
2020,11,15,12,44,13.40
2020,11,15,12,45,13.40
2020,11,15,12,46,10.10
2020,11,15,12,47,10.10
2020,11,15,12,48,7.60
2020,11,15,12,49,8.50
2020,11,15,12,50,7.40
2020,11,15,12,51,7.60
2020,11,15,12,52,7.40
2020,11,15,12,53,7.90
2020,11,15,12,54,5.90
2020,11,15,12,55,13.10
2020,11,15,12,56,13.50
2020,11,15,12,57,8.60
2020,11,15,12,58,11.60
2020,11,15,12,59,9.00
2020,11,15,13,00,7.30
2020,11,15,13,01,1.90
2020,11,15,13,02,1.10
2020,11,15,13,03,0.00
2020,11,15,13,04,3.70
2020,11,15,13,05,6.80
2020,11,15,13,06,5.00
2020,11,15,13,07,2.80
2020,11,15,13,08,1.40
2020,11,15,13,09,0.30
2020,11,15,13,10,5.00
2020,11,15,13,11,6.50
2020,11,15,13,12,0.10
2020,11,15,13,13,0.00
2020,11,15,13,14,3.40
2020,11,15,13,15,7.80
2020,11,15,13,16,6.10
2020,11,15,13,17,8.60
2020,11,15,13,18,3.90
2020,11,15,13,19,3.80
2020,11,15,13,20,7.00
2020,11,15,13,21,2.90
2020,11,15,13,22,0.30
2020,11,15,13,23,0.00
2020,11,15,13,24,1.30
2020,11,15,13,25,1.20
2020,11,15,13,26,0.50
2020,11,15,13,27,8.70
2020,11,15,13,28,10.80
2020,11,15,13,29,15.00
2020,11,15,13,30,9.00
2020,11,15,13,31,8.60
2020,11,15,13,32,3.00
2020,11,15,13,33,1.50
2020,11,15,13,34,0.80
2020,11,15,13,35,5.40
2020,11,15,13,36,2.50
2020,11,15,13,37,0.00
2020,11,15,13,38,0.00
2020,11,15,13,39,0.00
2020,11,15,13,40,0.00
2020,11,15,13,41,0.00
2020,11,15,13,42,0.00
2020,11,15,13,43,0.00
2020,11,15,13,44,0.00
2020,11,15,13,45,0.00
2020,11,15,13,46,0.00
2020,11,15,13,47,0.00
2020,11,15,13,48,0.00
2020,11,15,13,49,0.00
2020,11,15,13,50,0.00
2020,11,15,13,51,0.00
2020,11,15,13,52,0.00
2020,11,15,13,53,0.00
2020,11,15,13,54,0.00
2020,11,15,13,55,0.00
2020,11,15,13,56,0.00
2020,11,15,13,57,0.60
2020,11,15,13,58,3.30
2020,11,15,13,59,0.00
2020,11,15,14,00,0.00
2020,11,15,14,01,0.00
2020,11,15,14,02,0.00
2020,11,15,14,03,0.00
2020,11,15,14,04,0.00
2020,11,15,14,05,0.00
2020,11,15,14,06,7.10
2020,11,15,14,07,5.90
2020,11,15,14,08,0.00
2020,11,15,14,09,3.70
2020,11,15,14,10,0.50
2020,11,15,14,11,0.00
2020,11,15,14,12,0.00
2020,11,15,14,13,0.00
2020,11,15,14,14,0.00
2020,11,15,14,15,0.00
2020,11,15,14,16,0.00
2020,11,15,14,17,5.60
2020,11,15,14,18,5.50
2020,11,15,14,19,3.50
2020,11,15,14,20,0.10
2020,11,15,14,21,0.00
2020,11,15,14,22,0.00
2020,11,15,14,23,0.00
2020,11,15,14,24,0.00
2020,11,15,14,25,0.10
2020,11,15,14,26,0.00
2020,11,15,14,27,0.00
2020,11,15,14,28,0.00
2020,11,15,14,29,0.00
2020,11,15,14,30,0.00
2020,11,15,14,31,0.00
2020,11,15,14,32,0.00
2020,11,15,14,33,0.00
2020,11,15,14,34,0.00
2020,11,15,14,35,0.00
2020,11,15,14,36,4.30
2020,11,15,14,37,0.20
2020,11,15,14,38,0.00
2020,11,15,14,39,0.00
2020,11,15,14,40,0.00
2020,11,15,14,41,5.70
2020,11,15,14,42,8.50
2020,11,15,14,43,2.60
2020,11,15,14,44,3.20
2020,11,15,14,45,0.00
2020,11,15,14,46,0.00
2020,11,15,14,47,4.70
2020,11,15,14,48,3.60
2020,11,15,14,49,0.00
2020,11,15,14,50,0.00
2020,11,15,14,51,0.00
2020,11,15,14,52,4.40
2020,11,15,14,53,1.60
2020,11,15,14,54,0.00
2020,11,15,14,55,1.90
2020,11,15,14,56,4.30
2020,11,15,14,57,4.40
2020,11,15,14,58,0.00
2020,11,15,14,59,0.00
2020,11,15,15,00,0.00
2020,11,15,15,01,0.00
2020,11,15,15,02,0.00
2020,11,15,15,03,0.00
2020,11,15,15,04,0.00
2020,11,15,15,05,0.00
2020,11,15,15,06,0.20
2020,11,15,15,07,2.90
2020,11,15,15,08,6.80
2020,11,15,15,09,4.80
2020,11,15,15,10,1.30
2020,11,15,15,11,0.00
2020,11,15,15,12,0.00
2020,11,15,15,13,2.60
2020,11,15,15,14,1.80
2020,11,15,15,15,0.00
2020,11,15,15,16,0.00
2020,11,15,15,17,1.00
2020,11,15,15,18,7.00
2020,11,15,15,19,9.00
2020,11,15,15,20,10.80
2020,11,15,15,21,7.60
2020,11,15,15,22,8.50
2020,11,15,15,23,10.10
2020,11,15,15,24,14.40
2020,11,15,15,25,10.10
2020,11,15,15,26,7.30
2020,11,15,15,27,3.80
2020,11,15,15,28,8.80
2020,11,15,15,29,6.90
2020,11,15,15,30,3.60
2020,11,15,15,31,3.50
2020,11,15,15,32,4.40
2020,11,15,15,33,8.20
2020,11,15,15,34,2.60
2020,11,15,15,35,2.30
2020,11,15,15,36,1.10
2020,11,15,15,37,4.00
2020,11,15,15,38,8.10
2020,11,15,15,39,7.30
2020,11,15,15,40,8.50
2020,11,15,15,41,3.40
2020,11,15,15,42,13.30
2020,11,15,15,43,12.00
2020,11,15,15,44,17.60
2020,11,15,15,45,17.10
2020,11,15,15,46,11.60
2020,11,15,15,47,9.40
2020,11,15,15,48,19.70
2020,11,15,15,49,16.50
2020,11,15,15,50,8.90
2020,11,15,15,51,13.00
2020,11,15,15,52,10.30
2020,11,15,15,53,1.30
2020,11,15,15,54,1.50
2020,11,15,15,55,6.80
2020,11,15,15,56,4.00
2020,11,15,15,57,15.60
2020,11,15,15,58,21.20
2020,11,15,15,59,11.00
2020,11,15,16,00,12.90
2020,11,15,16,01,7.10
2020,11,15,16,02,8.70
2020,11,15,16,03,5.70
2020,11,15,16,04,0.00
2020,11,15,16,05,5.90
2020,11,15,16,06,9.60
2020,11,15,16,07,10.30
2020,11,15,16,08,11.20
2020,11,15,16,09,10.20
2020,11,15,16,10,10.70
2020,11,15,16,11,9.30
2020,11,15,16,12,14.90
2020,11,15,16,13,9.70
2020,11,15,16,14,9.40
2020,11,15,16,15,9.40
2020,11,15,16,16,10.50
2020,11,15,16,17,11.60
2020,11,15,16,18,15.40
2020,11,15,16,19,16.30
2020,11,15,16,20,9.50
2020,11,15,16,21,12.00
2020,11,15,16,22,11.70
2020,11,15,16,23,16.80
2020,11,15,16,24,17.00
2020,11,15,16,25,14.30
2020,11,15,16,26,12.60
2020,11,15,16,27,12.60
2020,11,15,16,28,14.60
2020,11,15,16,29,17.10
2020,11,15,16,30,13.40
2020,11,15,16,31,12.50
2020,11,15,16,32,11.30
2020,11,15,16,33,15.80
2020,11,15,16,34,15.20
2020,11,15,16,35,11.70
2020,11,15,16,36,14.00
2020,11,15,16,37,12.50
2020,11,15,16,38,14.10
2020,11,15,16,39,12.10
2020,11,15,16,40,14.90
2020,11,15,16,41,14.40
2020,11,15,16,42,16.50
2020,11,15,16,43,16.80
2020,11,15,16,44,14.60
2020,11,15,16,45,14.60
2020,11,15,16,46,17.30
2020,11,15,16,47,11.40
2020,11,15,16,48,5.10
2020,11,15,16,49,9.90
2020,11,15,16,50,7.20
2020,11,15,16,51,6.20
2020,11,15,16,52,7.40
2020,11,15,16,53,0.70
2020,11,15,16,54,5.40
2020,11,15,16,55,0.40
2020,11,15,16,56,0.00
2020,11,15,16,57,0.00
2020,11,15,16,58,0.00
2020,11,15,16,59,0.00
2020,11,15,17,00,0.00
2020,11,15,17,01,0.00
2020,11,15,17,02,0.00
2020,11,15,17,03,0.00
2020,11,15,17,04,0.00
2020,11,15,17,05,0.00
2020,11,15,17,06,0.00
2020,11,15,17,07,0.00
2020,11,15,17,08,0.00
2020,11,15,17,09,0.00
2020,11,15,17,10,0.00
2020,11,15,17,11,0.00
2020,11,15,17,12,0.00
2020,11,15,17,13,0.00
2020,11,15,17,14,0.00
2020,11,15,17,15,0.00
2020,11,15,17,16,0.00
2020,11,15,17,17,0.00
2020,11,15,17,18,0.00
2020,11,15,17,19,0.00
2020,11,15,17,20,0.00
2020,11,15,17,21,0.00
2020,11,15,17,22,0.00
2020,11,15,17,23,0.00
2020,11,15,17,24,0.00
2020,11,15,17,25,0.00
2020,11,15,17,26,0.00
2020,11,15,17,27,0.00
2020,11,15,17,28,0.00
2020,11,15,17,29,0.00
2020,11,15,17,30,0.00
2020,11,15,17,31,0.00
2020,11,15,17,32,5.60
2020,11,15,17,33,0.70
2020,11,15,17,34,1.60
2020,11,15,17,35,3.50
2020,11,15,17,36,0.00
2020,11,15,17,37,2.50
2020,11,15,17,38,9.60
2020,11,15,17,39,2.50
2020,11,15,17,40,0.00
2020,11,15,17,41,0.00
2020,11,15,17,42,0.00
2020,11,15,17,43,0.40
2020,11,15,17,44,5.60
2020,11,15,17,45,4.20
2020,11,15,17,46,4.00
2020,11,15,17,47,4.30
2020,11,15,17,48,0.80
2020,11,15,17,49,0.00
2020,11,15,17,50,0.00
2020,11,15,17,51,0.00
2020,11,15,17,52,0.00
2020,11,15,17,53,0.00
2020,11,15,17,54,0.00
2020,11,15,17,55,0.00
2020,11,15,17,56,0.00
2020,11,15,17,57,0.00
2020,11,15,17,58,0.00
2020,11,15,17,59,0.00
2020,11,15,18,00,0.00
2020,11,15,18,01,0.00
2020,11,15,18,02,0.00
2020,11,15,18,03,0.00
2020,11,15,18,04,0.00
2020,11,15,18,05,0.00
2020,11,15,18,06,0.00
2020,11,15,18,07,0.00
2020,11,15,18,08,0.00
2020,11,15,18,09,0.00
2020,11,15,18,10,0.00
2020,11,15,18,11,0.00
2020,11,15,18,12,0.00
2020,11,15,18,13,0.00
2020,11,15,18,14,0.00
2020,11,15,18,15,0.00
2020,11,15,18,16,0.00
2020,11,15,18,17,0.00
2020,11,15,18,18,0.00
2020,11,15,18,19,0.00
2020,11,15,18,20,0.00
2020,11,15,18,21,0.00
2020,11,15,18,22,0.00
2020,11,15,18,23,0.00
2020,11,15,18,24,0.00
2020,11,15,18,25,0.00
2020,11,15,18,26,0.00
2020,11,15,18,27,0.00
2020,11,15,18,28,0.00
2020,11,15,18,29,0.00
2020,11,15,18,30,0.00
2020,11,15,18,31,0.00
2020,11,15,18,32,0.00
2020,11,15,18,33,0.00
2020,11,15,18,34,0.00
2020,11,15,18,35,0.00
2020,11,15,18,36,0.00
2020,11,15,18,37,0.00
2020,11,15,18,38,0.00
2020,11,15,18,39,0.00
2020,11,15,18,40,0.00
2020,11,15,18,41,0.00
2020,11,15,18,42,0.00
2020,11,15,18,43,0.00
2020,11,15,18,44,0.00
2020,11,15,18,45,0.00
2020,11,15,18,46,0.00
2020,11,15,18,47,0.00
2020,11,15,18,48,0.00
2020,11,15,18,49,0.00
2020,11,15,18,50,0.00
2020,11,15,18,51,5.20
2020,11,15,18,52,6.00
2020,11,15,18,53,3.30
2020,11,15,18,54,0.00
2020,11,15,18,55,0.00
2020,11,15,18,56,0.10
2020,11,15,18,57,0.00
2020,11,15,18,58,0.00
2020,11,15,18,59,0.00
2020,11,15,19,00,0.00
2020,11,15,19,01,0.00
2020,11,15,19,02,5.60
2020,11,15,19,03,4.30
2020,11,15,19,04,0.10
2020,11,15,19,05,0.00
2020,11,15,19,06,0.00
2020,11,15,19,07,0.00
2020,11,15,19,08,0.00
2020,11,15,19,09,0.00
2020,11,15,19,10,0.20
2020,11,15,19,11,7.30
2020,11,15,19,12,4.90
2020,11,15,19,13,0.50
2020,11,15,19,14,0.00
2020,11,15,19,15,0.00
2020,11,15,19,16,0.00
2020,11,15,19,17,0.00
2020,11,15,19,18,3.20
2020,11,15,19,19,0.70
2020,11,15,19,20,0.00
2020,11,15,19,21,0.00
2020,11,15,19,22,0.00
2020,11,15,19,23,0.00
2020,11,15,19,24,3.40
2020,11,15,19,25,4.70
2020,11,15,19,26,4.10
2020,11,15,19,27,4.80
2020,11,15,19,28,4.80
2020,11,15,19,29,4.80
2020,11,15,19,30,4.80
2020,11,15,19,31,4.80
2020,11,15,19,32,4.80
2020,11,15,19,33,4.80
2020,11,15,19,34,4.80
2020,11,15,19,35,4.80
2020,11,15,21,17,0.00
2020,11,15,21,18,0.00
2020,11,15,21,19,0.00
2020,11,15,21,20,0.00
2020,11,15,21,21,0.00
2020,11,15,21,22,0.00
2020,11,15,21,23,0.00
2020,11,15,21,24,0.00
2020,11,15,21,25,0.00
2020,11,15,21,26,0.00
2020,11,15,21,27,0.00
2020,11,15,21,28,0.00
2020,11,15,21,29,0.00
2020,11,15,21,30,0.00
2020,11,15,21,31,0.00
2020,11,15,21,32,0.00
2020,11,15,21,33,0.00
2020,11,15,21,34,0.00
2020,11,15,21,35,0.00
2020,11,15,21,36,0.00
2020,11,15,21,37,0.00
2020,11,15,21,38,0.00
2020,11,15,21,39,0.00
2020,11,15,21,40,0.00
2020,11,15,21,41,0.00
2020,11,15,21,42,0.00
2020,11,15,21,43,0.00
2020,11,15,21,44,0.00
2020,11,15,21,45,0.00
2020,11,15,21,46,0.00
2020,11,15,21,47,0.00
2020,11,15,21,48,0.00
2020,11,15,21,49,0.00
2020,11,15,21,50,0.00
2020,11,15,21,51,0.00
2020,11,15,21,52,0.00
2020,11,15,21,53,0.00
2020,11,15,21,54,0.00
2020,11,15,21,55,0.00
2020,11,15,21,56,0.00
2020,11,15,21,57,0.00
2020,11,15,21,58,0.00
2020,11,15,21,59,0.00
2020,11,15,22,00,0.00
2020,11,15,22,01,0.00
2020,11,15,22,02,0.00
2020,11,15,22,03,0.00
2020,11,15,22,04,0.00
2020,11,15,22,05,0.00
2020,11,15,22,06,0.00
2020,11,15,22,07,0.00
2020,11,15,22,08,0.00
2020,11,15,22,09,0.00
2020,11,15,22,10,0.00
2020,11,15,22,11,0.00
2020,11,15,22,12,0.00
2020,11,15,22,13,0.00
2020,11,15,22,14,0.00
2020,11,15,22,15,0.00
2020,11,15,22,16,0.00
2020,11,15,22,17,0.00
2020,11,15,22,18,0.00
2020,11,15,22,19,0.00
2020,11,15,22,20,0.00
2020,11,15,22,21,0.00
2020,11,15,22,22,0.00
2020,11,15,22,23,0.00
2020,11,15,22,24,0.00
2020,11,15,22,25,0.00
2020,11,15,22,26,0.00
2020,11,15,22,27,0.00
2020,11,15,22,28,0.00
2020,11,15,23,19,0.00
2020,11,15,23,20,0.00
2020,11,15,23,21,0.00
2020,11,15,23,22,0.00
2020,11,15,23,23,0.00
2020,11,15,23,24,0.00
2020,11,15,23,25,0.00
2020,11,15,23,26,0.00
2020,11,15,23,27,0.00
2020,11,15,23,28,0.00
2020,11,15,23,29,0.00
2020,11,15,23,30,0.00
2020,11,15,23,31,0.00
2020,11,15,23,32,0.00
2020,11,15,23,33,0.00
2020,11,15,23,34,0.00
2020,11,15,23,35,0.00
2020,11,15,23,36,0.00
2020,11,15,23,37,0.00
2020,11,15,23,38,0.00
2020,11,15,23,39,0.00
2020,11,15,23,40,0.00
2020,11,15,23,41,0.00
2020,11,15,23,42,0.00
2020,11,15,23,43,0.00
2020,11,15,23,44,0.00
2020,11,15,23,45,0.00
2020,11,15,23,46,0.00
2020,11,15,23,47,0.00
2020,11,15,23,48,0.00
2020,11,15,23,49,0.00
2020,11,15,23,50,0.00
2020,11,15,23,51,0.00
2020,11,15,23,52,0.00
2020,11,15,23,53,0.00
2020,11,15,23,54,0.00
2020,11,15,23,55,0.00
2020,11,15,23,56,0.00
2020,11,15,23,57,0.00
2020,11,15,23,58,0.00
2020,11,15,23,59,0.00
